Погода в Железнодорожном

Россия / Челябинская область     55°05′57″N   61°33′22″E
темп.,
°C
ветер,
м/с
пор.,
м/с
влажн.,
%
обл.,
%
осадки,
мм/ч
давл.,
гПа
погр.,
м
19 апреля, пн
пн1923:00−1всв610440 0.0 1029845
02:00−2всв68450 0.0 10311004
05:00−3всв58460 0.0 1033899
08:00−3всв57400 0.0 10341028
11:000всв67325 0.0 10341437
14:00+1св67314 0.0 10341759
17:00+2св66335 0.0 10331889
20:000всв36445 0.0 1034120
20 апреля, вт
вт2023:00−1в11490 0.0 103514
02:00−2зюз11470 0.0 103410
05:00−2зсз22480 0.0 103526
08:000сз34390 0.0 1035415
11:00+3сз333131 0.0 10351298
14:00+6зсз34295 0.0 10331535
17:00+8зсз46280 0.0 10311790
20:00+5сз35410 0.0 103089
21 апреля, ср
ср2123:00+3зсз48520 0.0 1031161
02:00+2сз37590 0.0 1031123
05:00+1сз35640 0.0 103290
08:00+4сз36540 0.0 1033279
11:00+8ссз33420 0.0 1033923
14:00+10ссз22350 0.0 10321291
17:00+11ссв11340 0.0 10321386
20:00+9юв11440 0.0 103311
22 апреля, чт
чт2223:00+7ююв22510 0.0 103410
02:00+6ю22570 0.0 103411
05:00+4ю22620 0.0 103519
08:00+7ю34550 0.0 1036167
11:00+12ю45372 0.0 10361052
14:00+14ю56325 0.0 10351573
17:00+14ююз563012 0.0 10341735
20:00+11ю334596 0.0 103433
23 апреля, пт
пт2323:00+9ю3453100 0.0 103558
02:00+7ююз3360100 0.0 103526
05:00+6ю226470 0.0 103521
08:00+8ю356167 0.0 1035200
11:00+13ю5747100 0.0 10341233
14:00+15ю6638100 0.0 10332174
17:00+14ю5637100 0.0 10321976
20:00+11ю3547100 0.0 1032113